This is the latest recevied weather packets stored in our database for station/object AB0TJ. If no packets are shown the sender has not sent any weather packets the latest 10 day(s).
| Time | Temp. | Humidity | Pressure | Rain* | Wind** | Luminosity | Snow |
|---|---|---|---|---|---|---|---|
| 1777540999 | 6.11° C | 50% | 1016.3 hPa | 0 mm | - | 0 W/m² | - |
| 1777540439 | 6.11° C | 48% | 1016.3 hPa | 0 mm | - | 0 W/m² | - |
| 1777539914 | 6.67° C | 48% | 1016.4 hPa | 0 mm | - | 0 W/m² | - |
| 1777539404 | 6.67° C | 46% | 1016.3 hPa | 0 mm | - | 0 W/m² | - |
| 1777538869 | 7.22° C | 45% | 1016.3 hPa | 0 mm | - | 0 W/m² | - |
| 1777538329 | 7.22° C | 43% | 1016.3 hPa | 0 mm | - | 0 W/m² | - |
| 1777537834 | 7.78° C | 42% | 1016.3 hPa | 0 mm | - | 0 W/m² | - |
| 1777537263 | 7.78° C | 40% | 1016.5 hPa | 0 mm | - | 0 W/m² | - |
| 1777536723 | 8.33° C | 40% | 1016.4 hPa | 0 mm | - | 0 W/m² | - |
| 1777536164 | 8.89° C | 39% | 1016.4 hPa | 0 mm | - | 0 W/m² | - |
| 1777535606 | 8.89° C | 37% | 1016.5 hPa | 0 mm | - | 0 W/m² | - |
| 1777535109 | 8.89° C | 37% | 1016.3 hPa | 0 mm | - | 0 W/m² | - |
| 1777534544 | 8.89° C | 37% | 1016.4 hPa | 0 mm | - | 0 W/m² | - |
| 1777533979 | 9.44° C | 37% | 1016.4 hPa | 0 mm | - | 0 W/m² | - |
| 1777533409 | 9.44° C | 38% | 1016.4 hPa | 0 mm | - | 0 W/m² | - |
| 1777532877 | 10° C | 39% | 1016.3 hPa | 0 mm | - | 0 W/m² | - |
| 1777532329 | 10° C | 37% | 1016.3 hPa | 0 mm | - | 0 W/m² | - |
| 1777531733 | 10.56° C | 37% | 1016.2 hPa | 0 mm | - | 0 W/m² | - |
| 1777531184 | 10.56° C | 36% | 1016.4 hPa | 0 mm | - | 0 W/m² | - |
| 1777530619 | 10.56° C | 34% | 1016.3 hPa | 0 mm | - | 0 W/m² | - |
| 1777530067 | 10.56° C | 33% | 1016.2 hPa | 0 mm | - | 0 W/m² | - |
| 1777529514 | 10° C | 34% | 1016.5 hPa | 0 mm | - | 0 W/m² | - |
| 1777528973 | 10° C | 37% | 1016.4 hPa | 0 mm | - | 0 W/m² | - |
| 1777528389 | 10° C | 37% | 1016.6 hPa | 0 mm | - | 0 W/m² | - |
| 1777527892 | 10° C | 38% | 1016.6 hPa | 0 mm | - | 0 W/m² | - |
* Rain latest hour (hover to see other rain measurements)
** Current wind speed in m/s (hover to see current wind gust speed)